Location: Gdynia
(54.5193°N, 18.5395°E)
Time: 01:45:29
(UTC+01:00)

ISS - Pass Details

Date: 25 January 2019
Orbit: 403 x 411 km, 51.6° (Epoch: 19 February)

Event Time Altitude Azimuth Distance (km) Brightness Sun altitude
Rises 18:29:24 0° 223° (SW) 2,330 0.8 -19.8°
Reaches altitude 10° 18:31:43 10° 209° (SSW) 1,473 -0.6 -20.1°
Enters shadow 18:33:36 22° 178° (S) 967 -1.9 -20.4°
